Location: Penum?ka
(16.4840°N, 80.5772°E)
Time: 02:12:50
(UTC+00:00)

SL-08 R/B - Pass Details

Date: 19 May 2025
Orbit: 667 x 731 km, 98.5° (Epoch: 24 June)

Event Time Altitude Azimuth Distance (km) Brightness Sun altitude
Rises 14:03:04 0° 11° (N) 3,117 6.9 -14.1°
Reaches altitude 10° 14:05:21 10° 10° (N) 2,188 6.1 -14.6°
Maximum altitude 14:10:09 83° 283° (WNW) 712 3.4 -15.7°
Drops below altitude 10° 14:14:51 10° 195° (SSW) 2,144 5.7 -16.7°
Sets 14:17:04 0° 195° (SSW) 3,049 6.5 -17.1°
